Location: *
(52.2090°N, 4.1550°W)
Time: 07:47:40
(UTC+00:00)

Cosmos 2237 - Pass Details

Date: 19 July 2019
Orbit: 847 x 855 km, 70.8° (Epoch: 18 August)

Event Time Altitude Azimuth Distance (km) Brightness Sun altitude
Rises 21:57:02 0° 205° (SSW) 3,397 7.0 -10.4°
Reaches altitude 10° 21:59:28 10° 204° (SSW) 2,466 6.3 -10.6°
Maximum altitude 22:05:08 80° 119° (ESE) 868 4.2 -11.1°
Drops below altitude 10° 22:10:50 10° 33° (NNE) 2,486 7.0 -11.5°
Sets 22:13:18 0° 32° (NNE) 3,426 7.7 -11.7°
